LPPDLPLA

Guest
Details From LPPD - PONTA DELGADA
To LPLA - LAJES
Flight Number -
Tags generated
Created
Modified
Stats Distance 90 nm / 167 km
Max Altitude 9,600 ft / 2,926 m
Waypoints 3
Social Downloads 9
Likes 0
Share VATSIM

Download

Looking for another format? Having issues loading an existing format? Contact us
Advertisement - Login to hide

Notes

Basic altitude profile: - Ascent Rate: 2500ft/min - Ascent Speed: 250kts - Cruise Altitude: 35000ft - Cruise Speed: 420kts - Descent Rate: 1500ft/min - Descent Speed: 250kts

Route

LPPD MIPRU LPLA

ID Type Via Altitude Latitude Longitude Leg Dist Tot Dist Heading (true) Name
O LPPD APT - 0 ft / 0 m 37.74208˚ -25.69774˚ - 0 nm - PONTA DELGADA
MIPRU FIX - 9,600 ft / 2,926 m 38.27361˚ -26.36472˚ 44 nm 44 nm 316° / 315° -
O LPLA APT - 0 ft / 0 m 38.76441˚ -27.09348˚ 45 nm 90 nm 311° / 310° LAJES

Altitude Profile

Advertisement - Login to hide

LPPD

Details ICAO LPPD (PDL)
Name PONTA DELGADA
Region Portugal
Timezone Atlantic/Azores (UTC+0.0)
Stats Elevation 259 ft / 79 m (AMSL)
Location 37.742078° -25.697736°
Runways 1
Magnetic Variation 8.301° W

METAR

LPPD 210600Z 01018G28KT 9999 SCT014 15/12 Q1020

Decode

TAF

TAF LPPD 210500Z 2106/2206 01017KT 9999 SCT015 SCT040 TEMPO 2106/2120 02020G32KT PROB30 TEMPO 2106/2112 5000 SHRA SCT006 BKN015 BECMG 2112/2114 FEW025 TEMPO 2114/2206 FEW018 BKN030 BECMG 2122/2201 01008KT

Decode

Departure Runways

ID Width Length Bearing (true) Bearing (mag) Surface Threshold Offset Overrun Length
12 148 ft / 45 m 8,179 ft / 2,493 m 111.77° 120.07° Asphalt 0 ft / 0 m 375 ft / 114 m
30 148 ft / 45 m 8,179 ft / 2,493 m 291.79° 300.09° Asphalt 787 ft / 240 m 0 ft / 0 m

LPLA

Details ICAO LPLA (TER)
Name LAJES
Region Portugal
Timezone Atlantic/Azores (UTC+0.0)
Stats Elevation 180 ft / 55 m (AMSL)
Location 38.764410° -27.093482°
Runways 1
Magnetic Variation 8.872° W

METAR

LPLA 210600Z /////KT 9999 SCT020 15/11 Q1023

Decode

TAF

TAF LPLA 210517Z 2106/2206 36017KT 9999 FEW020 BECMG 2112/2114 36010KT FEW020 SCT035 BECMG 2120/2122 36005KT SCT020 BKN035

Decode

Destination Runways

ID Width Length Bearing (true) Bearing (mag) Surface Threshold Offset Overrun Length
15 197 ft / 60 m 10,869 ft / 3,313 m 140.81° 149.68° Asphalt 0 ft / 0 m 991 ft / 302 m
33 197 ft / 60 m 10,869 ft / 3,313 m 320.82° 329.69° Asphalt 0 ft / 0 m 1,040 ft / 317 m

Approach Navaids

Runway Type Ident Frequency Range Bearing (true) Bearing (mag) Slope Elevation
15 Localiser DK 109.90 MHz 18 nm / 33 km 140.82° 149.70° - 180 ft / 55 m (AMSL)
15 Glidescope DK 109.90 MHz 10 nm / 19 km 140.81° 149.68° 3.00° 159 ft / 48 m (AMSL)
33 Localiser OZ 111.50 MHz 18 nm / 33 km 320.81° 329.68° - 158 ft / 48 m (AMSL)
33 Glidescope OZ 111.50 MHz 10 nm / 19 km 320.81° 329.68° 3.20° 180 ft / 55 m (AMSL)

Popular Alternatives